RH
26 21 22 28 30 22 21 22 35 37 40 41 45 45 45 49 51 54 54 56 58 57
27 25 23 31 26 24 22 29 39 38 39 41 43 43 45 46 49 51 51 53 55 57
25 23 25 31 24 24 27 38 38 38 42 44 46 48 45 46 48 48 50 54 55 54
23 23 23 25 24 28 33 35 38 42 41 45 50 52 51 48 49 49 51 55 54 52
21 22 22 22 24 31 36 38 37 39 41 45 50 55 56 55 52 51 48 52 53 52
21 19 22 21 26 29 34 36 39 42 43 45 51 53 53 55 55 52 49 45 48 51
21 16 19 24 28 30 31 34 38 42 45 47 50 53 51 52 52 55 56 51 46 47
22 18 19 24 26 29 29 31 34 40 44 46 49 55 53 52 54 57 62 61 51 49
22 21 21 23 26 26 27 31 35 40 41 44 48 54 54 54 56 62 70 68 55 48
24 19 21 26 28 26 26 28 33 38 40 44 48 52 58 62 64 69 71 71 60 50
32 26 21 24 28 28 30 33 36 39 42 45 51 64 67 68 66 67 73 71 66 57
36 36 28 23 26 31 35 36 37 41 47 56 64 65 62 64 63 68 70 69 66 61
34 40 40 31 27 30 35 39 42 49 57 63 64 59 62 62 64 73 66 62 60 59
30 39 42 45 41 33 34 42 49 56 61 71 64 61 60 62 71 69 63 57 53 53